GW7074 Weather Reports


time (UTC)temp
F
wind
direction
speed
knots
gust
knots
rain 1hr
in
rain 24hr
in
rain mn
in
humidity
%
barometer
mb
20260504185403 83 223 1.7 1.7 0.00 0.00 0.00 56 1013.3
20260504184858 84 222 1.7 1.7 0.00 0.00 0.00 57 1013.4
20260504184354 82 205 2.6 5.2 0.00 0.00 0.00 58 1013.6
20260504183850 83 221 0.9 1.7 0.00 0.00 0.00 56 1013.5
20260504183348 83 188 2.6 3.5 0.00 0.00 0.00 56 1013.7
20260504182845 82 245 1.7 2.6 0.00 0.00 0.00 58 1013.7
20260504182343 83 242 2.6 3.5 0.00 0.00 0.00 55 1013.8
20260504181839 81 203 3.5 5.2 0.00 0.00 0.00 57 1013.6
20260504181337 82 204 2.6 3.5 0.00 0.00 0.00 58 1013.7
20260504180836 82 196 0.9 2.6 0.00 0.00 0.00 57 1013.8
20260504180334 80 228 2.6 3.5 0.00 0.00 0.00 59 1013.8
20260504175832 82 147 3.5 5.2 0.00 0.00 0.00 59 1014.1
20260504175328 82 191 1.7 1.7 0.00 0.00 0.00 57 1014.1
20260504174826 81 228 0.0 0.9 0.00 0.00 0.00 62 1014.3
20260504174323 82 125 5.2 7.0 0.00 0.00 0.00 55 1014.4
20260504173820 82 191 1.7 2.6 0.00 0.00 0.00 58 1014.4
20260504173317 82 256 3.5 3.5 0.00 0.00 0.00 55 1014.3
20260504172814 82 172 2.6 5.2 0.00 0.00 0.00 55 1014.3
20260504172311 81 146 2.6 3.5 0.00 0.00 0.00 59 1014.6
20260504171806 79 290 2.6 3.5 0.00 0.00 0.00 61 1014.7
20260504171304 80 173 3.5 6.1 0.00 0.00 0.00 60 1014.7
20260504170801 79 210 3.5 5.2 0.00 0.00 0.00 63 1014.7
20260504170258 79 208 1.7 5.2 0.00 0.00 0.00 62 1015.0
20260504160216 76 222 1.7 2.6 0.00 0.00 0.00 65 1015.7
20260504151144 75 149 3.5 3.5 0.00 0.00 0.00 70 1015.8
20260504150641 77 225 1.7 2.6 0.00 0.00 0.00 68 1015.5
20260504150138 75 225 3.5 5.2 0.00 0.00 0.00 67 1015.3
20260504141107 74 245 1.7 2.6 0.00 0.00 0.00 69 1015.4
20260504140603 73 229 1.7 1.7 0.00 0.00 0.00 71 1015.7
20260504130528 66 208 0.9 0.9 0.00 0.00 0.00 77 1015.4
20260504110415 56 233 0.0 0.0 0.00 0.00 0.00 93 1015.4
20260504100331 58 230 0.0 0.0 0.00 0.00 0.00 90 1015.4
20260504081725 58 232 0.0 0.0 0.00 0.00 0.00 89 1016.0
20260504081222 57 232 0.0 0.0 0.00 0.00 0.00 89 1016.1
20260504080718 58 232 0.0 0.0 0.00 0.00 0.00 88 1016.2
20260504080215 58 232 0.0 0.0 0.00 0.00 0.00 88 1016.4
20260504070142 59 236 0.0 0.0 0.00 0.00 0.00 86 1017.3
20260504050531 61 228 0.0 0.0 0.00 0.00 0.00 77 1018.3
20260504045525 62 227 0.0 0.0 0.00 0.00 0.00 76 1018.1
20260504045020 62 227 0.0 0.0 0.00 0.00 0.00 75 1018.3
20260504044518 62 225 0.0 0.0 0.00 0.00 0.00 75 1018.2
20260504044015 62 225 0.0 0.0 0.00 0.00 0.00 74 1018.2
20260504043512 63 225 0.0 0.0 0.00 0.00 0.00 73 1018.3
20260504043009 63 232 0.0 0.0 0.00 0.00 0.00 72 1018.3
20260504042506 64 229 0.0 0.0 0.00 0.00 0.00 71 1018.4
20260504042003 64 233 0.0 0.0 0.00 0.00 0.00 71 1018.5
20260504041459 64 231 0.0 0.0 0.00 0.00 0.00 70 1018.4
20260504040954 64 227 0.0 0.0 0.00 0.00 0.00 70 1018.3
20260504040453 64 226 0.0 0.0 0.00 0.00 0.00 70 1018.5
20260504035948 65 228 0.0 0.0 0.00 0.00 0.00 69 1018.4
20260504035446 65 224 0.9 0.9 0.00 0.00 0.00 68 1018.2
20260504034942 65 225 0.0 0.9 0.00 0.00 0.00 69 1018.2
20260504034440 65 228 0.9 0.9 0.00 0.00 0.00 68 1018.3
20260504033937 65 227 0.0 0.9 0.00 0.00 0.00 68 1018.4
20260504033435 66 224 0.9 0.9 0.00 0.00 0.00 67 1018.3
20260504032932 66 208 0.9 1.7 0.00 0.00 0.00 67 1018.3
20260504032428 66 225 0.9 0.9 0.00 0.00 0.00 67 1018.3
20260504031925 66 225 0.9 0.9 0.00 0.00 0.00 67 1018.5
20260504031422 66 225 0.9 0.9 0.00 0.00 0.00 66 1018.3
20260504030919 66 221 1.7 2.6 0.00 0.00 0.00 66 1018.1
20260504030416 67 225 0.0 0.0 0.00 0.00 0.00 65 1018.2
20260504025912 67 231 0.9 0.9 0.00 0.00 0.00 64 1018.3
20260504025409 67 229 0.0 0.0 0.00 0.00 0.00 63 1018.3
20260504024906 67 191 1.7 2.6 0.00 0.00 0.00 63 1018.4
20260504024402 67 229 0.9 0.9 0.00 0.00 0.00 63 1018.2
20260504023900 68 229 0.0 0.0 0.00 0.00 0.00 63 1018.1
20260504023356 68 245 0.9 1.7 0.00 0.00 0.00 62 1018.0
20260504022851 68 221 0.9 1.7 0.00 0.00 0.00 62 1018.1
20260504022349 68 185 1.7 1.7 0.00 0.00 0.00 62 1018.0
20260504021845 68 221 0.9 0.9 0.00 0.00 0.00 61 1018.0
20260504021342 68 206 1.7 1.7 0.00 0.00 0.00 61 1018.0
20260504020839 68 234 0.9 0.9 0.00 0.00 0.00 61 1018.1
20260504020336 69 228 0.0 0.0 0.00 0.00 0.00 60 1018.1
20260504015832 69 219 1.7 1.7 0.00 0.00 0.00 59 1018.0
20260504015328 69 217 1.7 1.7 0.00 0.00 0.00 57 1018.1
20260504014825 69 163 2.6 2.6 0.00 0.00 0.00 58 1017.6
20260504014321 70 229 1.7 1.7 0.00 0.00 0.00 57 1017.9
20260504013819 70 222 0.9 0.9 0.00 0.00 0.00 58 1017.6
20260504013316 70 207 1.7 1.7 0.00 0.00 0.00 57 1017.6
20260504012813 70 192 1.7 2.6 0.00 0.00 0.00 56 1017.7
20260504012311 70 215 2.6 3.5 0.00 0.00 0.00 56 1017.9
20260504011808 71 203 0.9 1.7 0.00 0.00 0.00 56 1017.8
20260504011304 71 209 1.7 1.7 0.00 0.00 0.00 55 1017.6
20260504010800 71 230 0.0 0.0 0.00 0.00 0.00 54 1017.6
20260504010255 72 219 0.9 1.7 0.00 0.00 0.00 54 1017.6
20260504005753 72 154 2.6 2.6 0.00 0.00 0.00 54 1017.5
20260504005249 72 251 0.9 1.7 0.00 0.00 0.00 54 1017.6
20260504004747 72 219 0.9 0.9 0.00 0.00 0.00 54 1017.4
20260504004244 73 221 1.7 2.6 0.00 0.00 0.00 52 1017.6
20260504003740 73 228 0.0 0.0 0.00 0.00 0.00 52 1017.8
20260504003238 73 226 0.0 0.9 0.00 0.00 0.00 51 1017.7
20260504002734 73 226 0.9 0.9 0.00 0.00 0.00 52 1017.7
20260504002231 74 225 0.9 0.9 0.00 0.00 0.00 52 1017.5
20260504001729 74 221 0.0 0.9 0.00 0.00 0.00 50 1017.7
20260504001226 74 199 0.9 1.7 0.00 0.00 0.00 50 1017.7
20260504000722 74 197 2.6 2.6 0.00 0.00 0.00 49 1017.4
20260504000219 75 176 1.7 2.6 0.00 0.00 0.00 51 1017.6
20260503235718 75 239 1.7 3.5 0.00 0.00 0.00 47 1017.6
20260503235215 75 183 3.5 3.5 0.00 0.00 0.00 47 1017.6
20260503234712 76 230 0.9 0.9 0.00 0.00 0.00 48 1017.8
20260503234210 77 252 1.7 2.6 0.00 0.00 0.00 46 1017.7
20260503233707 76 220 1.7 1.7 0.00 0.00 0.00 47 1017.4
20260503233202 76 211 0.9 1.7 0.00 0.00 0.00 49 1017.8
20260503232700 77 226 0.9 1.7 0.00 0.00 0.00 47 1017.6
20260503232157 77 180 1.7 1.7 0.00 0.00 0.00 46 1017.7
20260503231655 78 225 1.7 2.6 0.00 0.00 0.00 46 1017.9
20260503231151 78 186 1.7 3.5 0.00 0.00 0.00 44 1018.0
20260503230648 79 148 2.6 2.6 0.00 0.00 0.00 43 1017.8
20260503230145 79 240 0.9 0.9 0.00 0.00 0.00 44 1017.9
20260503225642 78 164 3.5 5.2 0.00 0.00 0.00 44 1017.8
20260503225142 78 207 2.6 3.5 0.00 0.00 0.00 43 1017.9
20260503224640 78 144 4.3 5.2 0.00 0.00 0.00 42 1017.9
20260503224137 78 187 2.6 2.6 0.00 0.00 0.00 41 1018.0
20260503223636 78 209 1.7 2.6 0.00 0.00 0.00 44 1018.1
20260503223131 78 220 1.7 2.6 0.00 0.00 0.00 42 1018.1
20260503222629 79 138 7.8 9.6 0.00 0.00 0.00 40 1018.0
20260503222126 78 210 1.7 2.6 0.00 0.00 0.00 40 1018.4
20260503221625 79 140 5.2 7.0 0.00 0.00 0.00 38 1018.3
20260503221122 79 206 4.3 6.1 0.00 0.00 0.00 36 1018.4
20260503220619 78 209 1.7 2.6 0.00 0.00 0.00 40 1018.5
20260503220115 79 227 0.9 1.7 0.00 0.00 0.00 37 1018.4
20260503215612 79 180 3.5 5.2 0.00 0.00 0.00 39 1018.7
20260503215109 79 193 3.5 5.2 0.00 0.00 0.00 38 1018.7
20260503214608 80 142 0.9 0.9 0.00 0.00 0.00 38 1018.6
20260503214103 78 218 0.9 0.9 0.00 0.00 0.00 36 1018.6
20260503213602 81 166 3.5 6.1 0.00 0.00 0.00 36 1018.6
20260503213058 81 213 0.9 2.6 0.00 0.00 0.00 37 1018.9
20260503212556 79 179 1.7 1.7 0.00 0.00 0.00 39 1019.0
20260503212053 80 182 4.3 6.1 0.00 0.00 0.00 39 1019.0
20260503211550 80 201 1.7 2.6 0.00 0.00 0.00 37 1019.2
20260503211045 80 226 0.0 0.9 0.00 0.00 0.00 37 1019.1
20260503210543 79 212 1.7 2.6 0.00 0.00 0.00 36 1019.1
20260503210038 81 176 3.5 5.2 0.00 0.00 0.00 37 1019.2
20260503205535 81 199 2.6 5.2 0.00 0.00 0.00 35 1019.2
20260503205032 79 201 3.5 3.5 0.00 0.00 0.00 38 1019.3
20260503204529 80 182 1.7 1.7 0.00 0.00 0.00 36 1019.2
20260503204025 79 215 0.9 1.7 0.00 0.00 0.00 35 1019.5
20260503203523 79 233 0.0 0.0 0.00 0.00 0.00 37 1019.7
20260503203020 80 177 3.5 3.5 0.00 0.00 0.00 39 1019.5
20260503202518 79 230 1.7 1.7 0.00 0.00 0.00 37 1019.7
20260503202015 79 233 0.0 0.9 0.00 0.00 0.00 39 1019.8
20260503201514 79 184 1.7 2.6 0.00 0.00 0.00 40 1019.9
20260503201010 81 137 7.0 8.7 0.00 0.00 0.00 36 1020.0
20260503200506 79 202 3.5 6.1 0.00 0.00 0.00 43 1020.2
20260503200003 79 136 2.6 3.5 0.00 0.00 0.00 40 1020.2
20260503195500 79 78 3.5 6.1 0.00 0.00 0.00 38 1020.2
20260503194957 80 230 3.5 5.2 0.00 0.00 0.00 38 1020.1
20260503194455 82 223 1.7 2.6 0.00 0.00 0.00 38 1020.2
20260503193949 81 238 0.9 0.9 0.00 0.00 0.00 35 1020.4
20260503193445 79 143 2.6 5.2 0.00 0.00 0.00 41 1020.4
20260503192941 79 233 4.3 6.1 0.00 0.00 0.00 36 1020.4
20260503192437 80 190 1.7 5.2 0.00 0.00 0.00 41 1020.5
20260503191933 79 237 0.9 0.9 0.00 0.00 0.00 43 1020.7
20260503191431 81 157 2.6 5.2 0.00 0.00 0.00 42 1020.8
20260503190927 80 258 3.5 5.2 0.00 0.00 0.00 39 1021.1
20260503190425 78 210 0.9 1.7 0.00 0.00 0.00 38 1020.8
20260503185921 79 18 2.6 2.6 0.00 0.00 0.00 40 1021.0